Lid_Strength_Index
1 -0 -0 -0 -0 -0 -0 -0 -0 -1 -1 -1 -1 -1 -1 -1 -1 -1 -1 -1 -1 -1 -1 -1 -1 -1 -2 -1 -2 -2 -1 -1 -1 -1 -1 -1 -1 -1 -1 -1 -1 -1 -1
0 -0 0 -0 -0 -0 -1 -1 -1 -1 -1 -1 -1 -1 -1 -1 -1 -1 -1 -1 -1 -1 -1 -1 -1 -1 -1 -1 -1 -1 -1 -1 -1 -1 -1 -1 -1 -1 -1 -1 -1 -1 -1
0 -0 -0 -0 -0 -1 -1 -1 -1 -1 -1 -1 -1 -1 -1 -1 -1 -1 -1 -1 -1 -1 -1 -1 -1 -1 -1 -1 -1 -1 -1 -1 -1 -1 -1 0 -0 -1 -1 -1 -1 -1 -1
0 0 -0 -0 -0 -1 -0 -0 -1 -1 -1 -1 -1 -1 -1 -1 -1 -1 -1 -1 -1 -1 -1 -1 -1 -1 -1 -1 -1 -1 -1 -1 -0 -1 -0 -1 -1 -2 -1 -1 -1 -1 -1
1 0 0 0 -0 -0 -0 -0 -0 -0 -1 -1 -1 -1 -1 -1 -1 -1 -1 -0 -1 -1 -1 -1 -1 -1 -1 -1 -1 -1 -1 -1 -0 -1 -0 -1 -1 -1 -1 -1 -2 -1 -1
0 0 1 1 -0 -0 -0 -0 -0 -0 -0 -0 -0 -1 -1 -1 -1 -1 -1 -1 -1 -1 -1 -1 -1 -1 -1 -0 -0 -0 -0 -0 0 -0 -0 -1 -1 -1 -1 -2 -1 -1 -1
1 1 1 1 1 -0 -1 -0 -0 -0 -0 -0 -0 -0 -1 -1 -1 -1 -0 -1 -1 -1 -1 -1 -1 -1 -1 -0 -0 -0 -0 -0 1 1 0 -0 -1 -1 -1 -1 -1 -1 -1
1 1 1 0 1 1 -0 -0 0 0 0 -0 -0 -0 -1 -0 -0 -0 -0 -0 -0 -0 -1 -1 -1 -1 -0 -0 -0 0 0 -0 0 1 -0 -0 -1 -1 -1 -2 -1 -1 -1
0 1 1 1 1 1 1 0 1 1 0 0 0 0 0 0 0 -0 -0 -0 -0 -0 -0 -1 -0 -0 -0 -0 -0 0 1 0 1 1 -0 0 -1 -1 -2 -2 -1 -1 -1
6 1 0 2 1 1 1 1 1 1 1 1 0 1 1 1 0 0 0 -0 -0 -0 -0 -0 -0 -0 -0 -0 0 1 1 0 1 1 0 0 -1 -1 -2 -2 -2 -1 -1
7 7 0 0 2 2 1 1 0 -0 0 1 0 1 1 0 0 0 0 0 0 0 -0 -0 -0 0 0 0 -0 0 0 0 1 1 0 -0 -1 -2 -2 -2 -1 -1 -1
8 8 7 3 0 0 -0 1 1 0 0 -0 -0 -0 0 1 0 -0 0 1 1 1 0 0 0 0 0 0 0 0 0 0 0 1 1 0 -1 -1 -1 -1 -1 -1 -1
6 6 5 5 4 0 0 0 1 1 1 0 0 -0 0 1 1 0 0 0 0 0 0 1 0 -0 0 1 1 1 0 1 1 1 0 0 -1 -1 -1 -1 -1 -2 -2
7 7 6 5 5 5 4 -0 0 1 1 1 -0 0 0 1 1 1 1 1 1 0 1 1 0 0 1 0 0 0 0 1 1 1 1 1 -0 -1 -1 -1 -1 -1 -2
8 7 7 6 5 5 5 4 -0 0 0 1 1 0 -0 0 1 1 1 1 1 1 1 1 1 1 1 1 1 0 0 0 0 1 1 1 0 -0 -1 -1 -1 -2 -2
8 9 8 7 6 6 5 5 4 -0 0 0 0 0 -0 0 1 1 1 1 1 1 1 1 1 1 1 1 1 1 0 0 -0 0 1 0 1 -0 -1 -1 -1 -1 -2
10 9 9 8 7 7 6 5 5 3 -0 0 0 -0 0 0 1 1 1 1 1 1 1 1 1 1 1 1 1 2 1 0 -0 0 0 -0 1 1 1 -0 -1 -1 -1
10 10 9 9 9 8 8 7 5 4 2 0 -0 0 -0 -0 0 1 1 1 1 1 1 1 1 1 1 1 2 1 1 0 -0 -0 0 0 -0 -0 1 1 -0 -1 -1
10 10 10 9 9 8 8 7 7 5 4 -0 -0 0 -0 -0 0 0 1 1 1 1 1 1 1 1 2 2 2 1 1 1 0 -0 0 0 0 0 0 0 1 1 -0
10 9 9 9 8 8 8 7 7 6 5 4 1 0 0 0 -0 0 1 1 1 1 2 1 2 2 2 2 1 1 2 1 0 0 0 0 -0 0 0 0 -0 0 1
11 11 10 10 9 9 9 9 8 8 7 6 2 1 0 0 0 0 1 1 1 1 1 2 2 2 3 3 2 2 2 1 1 1 0 0 1 1 1 1 0 -0 0
12 11 11 11 11 11 10 10 9 8 7 6 5 2 0 2 0 0 1 1 1 1 1 2 2 3 3 2 3 3 5 4 3 2 1 2 1 1 1 1 1 1 0
13 12 12 12 12 11 11 10 9 8 6 6 4 2 1 1 1 0 0 1 1 1 2 2 2 2 3 3 3 4 6 7 5 4 4 3 3 2 1 1 1 1 1
13 13 12 12 11 11 10 10 11 10 9 6 5 3 3 2 3 1 0 1 1 1 2 2 2 2 2 3 4 3 4 4 6 7 5 3 3 3 2 2 1 1 1
13 13 12 12 11 11 11 10 10 9 8 6 5 4 4 3 2 3 3 0 1 1 1 2 2 2 1 2 3 3 4 4 4 5 7 5 4 3 2 2 2 1 1
13 12 12 12 12 11 10 10 10 9 8 7 6 5 4 3 2 2 3 4 1 1 1 2 2 2 2 2 2 3 3 4 5 5 6 6 5 4 2 2 2 2 1